Regional Weather Roundup
Issued by NWS

Home | Current Version | Previous Version | Graphics & Text | Print | Product List | Glossary On
Versions: 1 2 3 4 5 6 7 8 9 10 11 12 13 14 15 16 17 18 19 20 21 22 23 24 25 26 27 28 29 30 31 32 33 34 35 36 37 38 39 40 41 42 43 44 45 46 47 48 49 50
000
ASUS44 KMEG 040600
RWRTN
TENNESSEE HOURLY STATE WEATHER ROUNDUP
NATIONAL WEATHER SERVICE MEMPHIS TN
100 AM CDT FRI SEP 04 2015

TNZ002-004-019-021-049-052-054-088>092-040700-
WEST TENNESSEE

CITY           SKY/WX    TMP DP  RH WIND       PRES   REMARKS
MEMPHIS INTL   CLEAR     79  70  74 CALM      29.96R
NWS MEMPHIS      N/A     74 N/A N/A MISG        N/A
JACKSON        CLEAR     72  71  97 CALM      29.96S FOG
DYERSBURG      CLEAR     73  72  94 E3        29.97S
UNION CITY       N/A    N/A N/A N/A CALM      29.96R VSB 1
PARIS          CLEAR     68  66  94 CALM      29.98S
LEXINGTON      CLEAR     72  72 100 CALM      29.96F
$$

TNZ008-025-027-028-033-062-065-066-040700-
NORTH MIDDLE TENNESSEE

CITY           SKY/WX    TMP DP  RH WIND       PRES   REMARKS
NASHVILLE      PTCLDY    76  67  73 CALM      29.98S
CLARKSVILLE    CLEAR     70  67  90 CALM      29.97S
COOKEVILLE     CLEAR     66  66 100 CALM      30.00S
CROSSVILLE     CLEAR     68  65  90 CALM      30.05F FOG
$$

TNZ061-075-076-078-094-096-097-040700-
SOUTH MIDDLE TENNESSEE

CITY           SKY/WX    TMP DP  RH WIND       PRES   REMARKS
FAYETTEVILLE   CLEAR     70  70 100 CALM      29.99S
TULLAHOMA      CLEAR     70  66  88 CALM      30.01S
WINCHESTER     CLEAR     68  68 100 CALM      30.00S
COLUMBIA       CLEAR    N/A N/A N/A S3        29.97S
SHELBYVILLE    CLEAR     72  72 100 CALM      29.99F
$$

TNZ017-018-042-046-047-040700-
NORTHEAST TENNESSEE

CITY           SKY/WX    TMP DP  RH WIND       PRES   REMARKS
TRI CITIES     PTCLDY    66  64  93 CALM      30.02F
ELIZABETHTON   CLEAR     64  63  94 CALM      30.03F
$$

TNZ012-013-036-069-073-074-040700-
CENTRAL EAST TENNESSEE

CITY           SKY/WX    TMP DP  RH WIND       PRES   REMARKS
KNOXVILLE      CLEAR     72  70  93 CALM      29.98S
OAK RIDGE      CLEAR     72  67  84 CALM      30.00S
GATLINBURG     CLEAR     70  64  83 CALM      29.99S
$$

TNZ083-085-099-040700-
SOUTHEAST TENNESSEE

CITY           SKY/WX    TMP DP  RH WIND       PRES   REMARKS
CHATTANOOGA    CLEAR     72  69  90 CALM      29.98S
$$

SKY/WX REPORTED AS FAIR MEANS FEW OR NO CLOUDS BELOW
12 THOUSAND FEET.



USA.gov is the U.S. government's official web portal to all federal, state and local government web resources and services.